Location: Newark
(34.6283°N, 36.0776°E)
Time: 04:05:08
(UTC+00:00)

Tiros 1 despin weight - Pass Details

Date: 27 September 2019
Orbit: 593 x 643 km, 48.2° (Epoch: 22 October)

Event Time Altitude Azimuth Distance (km) Brightness Sun altitude
Rises 09:15:05 0° 290° (WNW) 2,901 ? 53.7°
Reaches altitude 10° 09:18:15 10° 312° (NW) 1,984 ? 53.7°
Maximum altitude 09:21:03 16° 350° (N) 1,626 ? 53.8°
Drops below altitude 10° 09:23:50 10° 28° (NNE) 1,966 ? 53.8°
Sets 09:26:57 0° 51° (NE) 2,860 ? 53.8°
